Preview of NWS' New Version of Forecast
This preview is not operational and should not be used for support decisions.

Regional Weather Roundup (RWR)

Issued by National Weather Service (NWS)

                            
000
ASUS46 KSEW 211110
RWRWA 

WASHINGTON REGIONAL WEATHER ROUNDUP
NATIONAL WEATHER SERVICE SEATTLE WA
400 AM PDT SUN JUL 21 2019

NOTE:"FAIR" INDICATES FEW OR NO CLOUDS BELOW 12,000 FEET WITH NO 
SIGNIFICANT WEATHER AND/OR OBSTRUCTIONS TO VISIBILITY.

WAZ507-509-555>559-211200-
SEATTLE, TACOMA, EVERETT, AND VICINITY
  
CITY           SKY/WX    TMP DP  RH WIND       PRES   REMARKS
EVERETT        CLEAR     56  51  84 N3        29.99S                  
BOEING FIELD   CLEAR     61  49  64 NW3       29.97F                  
RENTON         CLEAR     60  54  80 E3        29.97S                  
SEATAC AIRPORT CLEAR     61  50  67 CALM      29.98S                  
JBLM-MCCHORD   CLEAR     53  52  98 CALM      29.98R                  
PUYALLUP       FAIR      52  52 100 CALM      29.98S                  
BREMERTON      CLEAR     53  47  79 CALM      29.98S                  
JBLM-FT LEWIS  NOT AVBL                                               
TACOMA NARROWS CLEAR     56  48  74 CALM      29.99R                  
$$
 
WAZ001-503-506-510-514-515-211200-
NORTH INTERIOR
  
CITY           SKY/WX    TMP DP  RH WIND       PRES   REMARKS
BELLINGHAM     CLEAR     53  50  89 CALM      29.98S FOG              
FRIDAY HARBOR  CLEAR     50  48  93 CALM      29.99F                  
EASTSOUND      CLEAR     55  52  88 CALM      29.98S                  
PORT ANGELES   CLEAR     49  46  90 CALM      30.00S                  
EDIZ HOOK      FAIR      53  49  87 SW3       29.99F                  
PORT TOWNSEND  FAIR      48  46  93 CALM      29.98F                  
NAS WHIDBEY    PTCLDY    54  48  80 CALM      30.03S                  
ARLINGTON        N/A     53  51  93 CALM      29.99S                  
BURLINGTON     CLEAR     52  50  93 CALM      29.98F                  
$$
 
WAZ020-022-039-040-504-511-512-211200-
SOUTHWEST INTERIOR
  
CITY           SKY/WX    TMP DP  RH WIND       PRES   REMARKS
SHELTON        CLEAR     50  46  86 CALM      29.96S                  
OLYMPIA        CLEAR     50  47  89 CALM      29.98S                  
CHEHALIS       FAIR      52  52 100 CALM      29.98S                  
KELSO          CLEAR     54  52  93 CALM      29.98R                  
VANCOUVER      CLEAR     58  51  78 CALM      29.94R                  
SCAPPOOSE, OR  CLEAR     56  49  77 CALM      29.93S                  
PORTLAND, OR   CLEAR     65  54  67 CALM      29.95R                  
$$
 
WAZ021-516-517-211200-
WASHINGTON COAST
  
CITY           SKY/WX    TMP DP  RH WIND       PRES   REMARKS
FORKS          CLEAR     49  47  93 CALM      29.99S                  
HOQUIAM        CLEAR     54  54 100 CALM      29.98S                  
ASTORIA, OR    CLEAR     54  52  93 CALM      29.97S                  
$$
 
WAZ019-023-024-040-567>569-211200-
CASCADE MOUNTAINS AND COLUMBIA GORGE
  
CITY           SKY/WX    TMP DP  RH WIND       PRES   REMARKS
STAMPEDE PASS  CLEAR     52  37  56 CALM      30.12S                  
TROUTDALE, OR  CLEAR     55  47  74 E3        29.95R                  
HOOD RIVER, OR SUNNY     54  41  62 CALM      30.00R                  
THE DALLES, OR CLEAR     58  39  49 SE3       29.98R                  
$$

WAZ026-027-041>044-520-521-211200-
EAST SLOPES
  
CITY           SKY/WX    TMP DP  RH WIND       PRES   REMARKS
OMAK           CLEAR     57  44  62 N8        30.09S                  
WENATCHEE      CLEAR     60  39  45 SW8       30.06S                  
ELLENSBURG     CLEAR     49  38  65 CALM      30.06S                  
YAKIMA         CLEAR     50  40  68 W7        30.03F                  
SUNNYSIDE ARPT SUNNY     49  46  90 N3        30.01                   
YAKIMA TC      FAIR      53  32  45 S3        30.03S                  
$$

WAZ028-034-035-211200-
COLUMBIA BASIN
  
CITY           SKY/WX    TMP DP  RH WIND       PRES   REMARKS
EPHRATA        CLEAR     64  42  44 N8        30.05S                  
MOSES LAKE     CLEAR     59  42  53 N8        30.04S                  
PASCO          CLEAR     54  45  71 N6        29.98F                  
RICHLAND ARPT  SUNNY     55  41  60 W6        29.99                   
HERMISTON, OR  CLEAR     53  39  59 S6        29.97S                  
$$

WAZ036>038-211200-
NORTHEAST WASHINGTON
  
CITY           SKY/WX    TMP DP  RH WIND       PRES   REMARKS
SPOKANE GEIGER PTCLDY    57  42  57 NE6       30.10S                  
SPOKANE FELTS  CLEAR     52  44  74 N3        30.11R                  
FAIRCHILD AFB  CLEAR     53  41  65 NE7       30.10S                  
COEURDALENE,ID CLEAR     54  45  71 N13       30.12S                  
DEER PARK      CLEAR     52  43  71 NE7       30.12S                  
$$

WAZ029>033-211200-
SOUTHEAST WASHINGTON
  
CITY           SKY/WX    TMP DP  RH WIND       PRES   REMARKS
PULLMAN        CLEAR     51  38  60 CALM      30.07F                  
LEWISTON, ID   CLEAR     58  35  42 SE5       30.04R                  
WALLA WALLA    CLEAR     59  37  44 E6        29.98F                  
PENDLETON, OR  CLEAR     56  36  47 S10       29.98F                  
$$